Weather in Kostino-Otdelets

Russia / Voronezh Oblast     51°31′57″N   41°27′21″E
temp.,
°C
wind,
m/s
gust,
m/s
humid.,
%
clouds,
%
prec.,
mm/h
press.,
hPa
HPBL,
m
8 may, sat
sat800:00+7se228948 0.0 101721
03:00+6s229255 0.0 101823
06:00+7se348679 0.0 1016109
09:00+13se456194 0.0 1015546
12:00+15sse565132 0.0 1013986
15:00+14sse5106396 0.0 1012426
18:00+14sse51173100 0.1 1009443
21:00+13sse71685100 0.4 1008430
9 may, sun
sun900:00+11sw3695100 0.1 1007149
03:00+10sw3797100 0.1 1008239
06:00+7w6989100 0.1 1009442
09:00+6wnw6990100 1.1 1011561
12:00+6wnw6890100 4.3 1013783
15:00+8nw71179100 4.4 10151107
18:00+8nnw61276100 0.0 10171256
21:00+7nnw61280100 0.1 1019859
10 may, mon
mon1000:00+6nnw61380100 0.0 1020715
03:00+6n81581100 0.0 1019936
06:00+6n81775100 0.0 10211015
09:00+8nne111868100 0.0 10201067
12:00+7nne101975100 0.0 1020736
15:00+7nne101989100 1.6 1019652
18:00+9nne101989100 0.6 1019684
21:00+9nne112187100 1.3 1019565
11 may, tue
tue1100:00+9ne91889100 0.2 1019571
03:00+9nne91893100 0.8 1018472
06:00+10ene71595100 5.6 1020620
09:00+9ese5109179 7.4 1023643
12:00+13ese57640 0.0 10231056
15:00+15ese4662100 0.0 10241247
18:00+13e3572100 0.0 1024305
21:00+9ene4879100 0.0 1024209
12 may, wed
wed1200:00+9e3692100 0.0 1024200
03:00+9e1195100 0.0 102323
06:00+9ne2395100 1.8 1023101
09:00+13nne227923 1.8 1022435
12:00+14nne3384100 0.0 1022535
15:00+15n1181100 0.0 1020300
18:00+15nne128633 0.1 1019200
21:00+13e3394100 0.1 101953